| time (UTC) | temp C | wind direction | speed KPH | gust KPH | rain 1hr cm | rain 24hr cm | rain mn cm | humidity % | barometer mb |
| 20260505200042 | 3 | 345 | 0.0 | 11.3 | 0.00 | 0.84 | 0.58 | 92 | 999.6 |
| 20260505194542 | 3 | 359 | 1.6 | 9.7 | 0.00 | 0.84 | 0.58 | 93 | 999.5 |
| 20260505193041 | 3 | 354 | 0.0 | 11.3 | 0.00 | 0.84 | 0.58 | 94 | 999.4 |
| 20260505191541 | 3 | 345 | 0.0 | 11.3 | 0.03 | 0.84 | 0.58 | 94 | 999.4 |
| 20260505190040 | 3 | 4 | 0.0 | 12.9 | 0.05 | 0.84 | 0.58 | 94 | 999.6 |
| 20260505184542 | 3 | 359 | 1.6 | 9.7 | 0.05 | 0.84 | 0.58 | 93 | 999.6 |
| 20260505183039 | 3 | 359 | 0.0 | 9.7 | 0.08 | 0.84 | 0.58 | 94 | 999.8 |
| 20260505181554 | 3 | 359 | 0.0 | 8.0 | 0.05 | 0.81 | 0.56 | 94 | 999.7 |
| 20260505180042 | 2 | 4 | 0.0 | 8.0 | 0.08 | 0.79 | 0.53 | 94 | 999.8 |
| 20260505174540 | 2 | 4 | 0.0 | 6.4 | 0.08 | 0.79 | 0.53 | 94 | 999.9 |
| 20260505173037 | 2 | 58 | 0.0 | 6.4 | 0.05 | 0.76 | 0.51 | 94 | 999.9 |
| 20260505171541 | 2 | 60 | 0.0 | 1.6 | 0.08 | 0.76 | 0.51 | 94 | 999.8 |
| 20260505170036 | 2 | 56 | 0.0 | 6.4 | 0.03 | 0.71 | 0.46 | 94 | 999.8 |
| 20260505164536 | 2 | 359 | 0.0 | 6.4 | 0.03 | 0.71 | 0.46 | 94 | 999.9 |
| 20260505163036 | 2 | 324 | 0.0 | 8.0 | 0.03 | 0.71 | 0.46 | 94 | 999.9 |
| 20260505161534 | 2 | 359 | 0.0 | 8.0 | 0.03 | 0.69 | 0.43 | 94 | 999.8 |
| 20260505153041 | 2 | 11 | 0.0 | 6.4 | 0.10 | 0.69 | 0.43 | 94 | 999.7 |
| 20260505151531 | 2 | 291 | 0.0 | 3.2 | 0.10 | 0.66 | 0.41 | 94 | 999.7 |
| 20260505124515 | 2 | 8 | 3.2 | 14.5 | 0.13 | 0.51 | 0.25 | 93 | 997.9 |
| 20260505123012 | 2 | 359 | 3.2 | 14.5 | 0.18 | 0.48 | 0.23 | 93 | 997.4 |
| 20260505121512 | 2 | 359 | 6.4 | 17.7 | 0.15 | 0.46 | 0.20 | 93 | 997.4 |
| 20260505120008 | 2 | 359 | 11.3 | 32.2 | 0.13 | 0.43 | 0.18 | 92 | 996.9 |
| 20260505114502 | 3 | 285 | 4.8 | 14.5 | 0.08 | 0.38 | 0.13 | 93 | 996.6 |
| 20260505113104 | 3 | 243 | 4.8 | 14.5 | 0.00 | 0.30 | 0.05 | 93 | 996.5 |
| 20260505111557 | 3 | 359 | 8.0 | 17.7 | 0.03 | 0.30 | 0.05 | 93 | 996.4 |
| 20260505110110 | 4 | 359 | 1.6 | 14.5 | 0.05 | 0.30 | 0.05 | 93 | 995.9 |
| 20260505101546 | 5 | 267 | 6.4 | 14.5 | 0.03 | 0.28 | 0.03 | 93 | 994.8 |
| 20260505100043 | 5 | 359 | 6.4 | 17.7 | 0.00 | 0.25 | 0.00 | 92 | 994.8 |
| 20260505094539 | 6 | 359 | 6.4 | 17.7 | 0.00 | 0.25 | 0.00 | 91 | 994.6 |
| 20260505093035 | 7 | 251 | 9.7 | 17.7 | 0.00 | 0.25 | 0.00 | 90 | 994.6 |
| 20260505091533 | 8 | 359 | 0.0 | 3.2 | 0.00 | 0.25 | 0.00 | 92 | 994.4 |
| 20260505090036 | 8 | 359 | 0.0 | 3.2 | 0.00 | 0.25 | 0.00 | 93 | 994.2 |
| 20260505084535 | 8 | 164 | 0.0 | 3.2 | 0.00 | 0.25 | 0.00 | 93 | 994.4 |
| 20260505083031 | 8 | 164 | 0.0 | 0.0 | 0.00 | 0.25 | 0.00 | 92 | 994.4 |
| 20260505081529 | 7 | 164 | 0.0 | 0.0 | 0.00 | 0.25 | 0.00 | 92 | 994.5 |
| 20260505080028 | 8 | 163 | 0.0 | 0.0 | 0.00 | 0.25 | 0.00 | 92 | 994.3 |
| 20260505074530 | 8 | 163 | 0.0 | 0.0 | 0.00 | 0.25 | 0.00 | 92 | 994.4 |
| 20260505073026 | 8 | 163 | 0.0 | 0.0 | 0.00 | 0.25 | 0.00 | 92 | 994.7 |
| 20260505071526 | 8 | 164 | 0.0 | 0.0 | 0.00 | 0.25 | 0.00 | 92 | 994.8 |
| 20260505070024 | 8 | 164 | 0.0 | 0.0 | 0.00 | 0.25 | 0.00 | 92 | 994.7 |
| 20260505064532 | 8 | 165 | 0.0 | 0.0 | 0.00 | 0.25 | 0.00 | 92 | 994.7 |
| 20260505063021 | 8 | 164 | 0.0 | 0.0 | 0.00 | 0.25 | 0.00 | 92 | 994.8 |
| 20260505061520 | 8 | 165 | 0.0 | 6.4 | 0.00 | 0.25 | 0.00 | 91 | 994.8 |
| 20260505060019 | 8 | 239 | 0.0 | 1.6 | 0.00 | 0.25 | 0.00 | 91 | 994.9 |
| 20260505054537 | 8 | 240 | 0.0 | 0.0 | 0.03 | 0.25 | 0.25 | 91 | 995.0 |
| 20260505053018 | 8 | 359 | 0.0 | 3.2 | 0.05 | 0.25 | 0.25 | 91 | 994.7 |
| 20260505051519 | 8 | 248 | 0.0 | 1.6 | 0.05 | 0.25 | 0.25 | 91 | 994.7 |
| 20260505041514 | 8 | 359 | 0.0 | 9.7 | 0.10 | 0.20 | 0.20 | 89 | 995.3 |
| 20260505040013 | 8 | 252 | 0.0 | 8.0 | 0.08 | 0.18 | 0.18 | 87 | 995.2 |
| 20260505034512 | 8 | 262 | 4.8 | 14.5 | 0.03 | 0.13 | 0.13 | 84 | 995.0 |
| 20260505033011 | 10 | 266 | 6.4 | 17.7 | 0.00 | 0.10 | 0.10 | 76 | 994.7 |
| 20260505031504 | 10 | 257 | 0.0 | 8.0 | 0.00 | 0.10 | 0.10 | 73 | 994.1 |
| 20260505030008 | 10 | 275 | 0.0 | 3.2 | 0.00 | 0.10 | 0.10 | 74 | 993.7 |
| 20260505024502 | 10 | 274 | 0.0 | 0.0 | 0.03 | 0.10 | 0.10 | 75 | 993.2 |
| 20260505023002 | 10 | 274 | 0.0 | 0.0 | 0.03 | 0.10 | 0.10 | 78 | 993.0 |
| 20260505021501 | 10 | 274 | 0.0 | 0.0 | 0.03 | 0.10 | 0.10 | 78 | 992.8 |
| 20260505020109 | 10 | 275 | 0.0 | 0.0 | 0.03 | 0.10 | 0.10 | 75 | 992.9 |
| 20260505014603 | 10 | 274 | 0.0 | 0.0 | 0.00 | 0.08 | 0.08 | 76 | 992.5 |
| 20260505013059 | 10 | 274 | 0.0 | 0.0 | 0.05 | 0.08 | 0.08 | 74 | 992.4 |
| 20260505011603 | 10 | 359 | 0.0 | 0.0 | 0.05 | 0.08 | 0.08 | 75 | 992.2 |
| 20260505010111 | 10 | 276 | 0.0 | 16.1 | 0.05 | 0.08 | 0.08 | 72 | 992.2 |
| 20260505004624 | 11 | 338 | 3.2 | 22.5 | 0.05 | 0.08 | 0.08 | 68 | 992.5 |
| 20260505003059 | 13 | 359 | 11.3 | 29.0 | 0.03 | 0.03 | 0.03 | 53 | 992.1 |
| 20260505001553 | 13 | 359 | 4.8 | 14.5 | 0.03 | 0.03 | 0.03 | 48 | 991.7 |
| 20260504234550 | 13 | 260 | 12.9 | 35.4 | 0.03 | 0.03 | 0.03 | 51 | 990.8 |
| 20260504233050 | 16 | 274 | 8.0 | 20.9 | 0.00 | 0.00 | 0.00 | 37 | 990.5 |
| 20260504231618 | 16 | 329 | 11.3 | 35.4 | 0.00 | 0.00 | 0.00 | 33 | 990.6 |
| 20260504230047 | 17 | 289 | 12.9 | 22.5 | 0.00 | 0.00 | 0.00 | 32 | 990.2 |
| 20260504224546 | 17 | 274 | 9.7 | 22.5 | 0.00 | 0.00 | 0.00 | 31 | 990.0 |
| 20260504223048 | 17 | 330 | 12.9 | 32.2 | 0.00 | 0.00 | 0.00 | 30 | 989.9 |
| 20260504221618 | 17 | 354 | 12.9 | 24.1 | 0.00 | 0.00 | 0.00 | 30 | 989.8 |
| 20260504220045 | 18 | 317 | 11.3 | 32.2 | 0.00 | 0.00 | 0.00 | 28 | 989.7 |
| 20260504214544 | 18 | 347 | 8.0 | 17.7 | 0.00 | 0.00 | 0.00 | 24 | 989.2 |
| 20260504213045 | 18 | 348 | 6.4 | 17.7 | 0.00 | 0.00 | 0.00 | 24 | 989.4 |
| 20260504211539 | 20 | 322 | 9.7 | 20.9 | 0.00 | 0.00 | 0.00 | 23 | 989.7 |
| 20260504210045 | 21 | 4 | 9.7 | 22.5 | 0.00 | 0.00 | 0.00 | 23 | 989.9 |
| 20260504204537 | 19 | 279 | 6.4 | 20.9 | 0.00 | 0.00 | 0.00 | 23 | 990.0 |
| 20260504203036 | 19 | 338 | 3.2 | 14.5 | 0.00 | 0.00 | 0.00 | 24 | 990.2 |
| 20260504201534 | 18 | 272 | 6.4 | 16.1 | 0.00 | 0.00 | 0.00 | 26 | 990.3 |